Time,TemperatureF,DewpointF,PressureIn,WindDirection,WindDirectionDegrees,WindSpeedMPH,WindSpeedGustMPH,Humidity,HourlyPrecipIn,Conditions,Clouds,dailyrainin,SoftwareType,DateUTC
2013-03-23 05:00:00,73.1,71.3,29.92,SSE,158,1.0,7.0,94,0.00,,,0.01,VWS V14.01,2013-03-23 09:00:00,
2013-03-23 05:32:00,73.1,71.3,29.92,SSE,158,1.0,7.0,94,0.00,,,0.01,VWS V14.01,2013-03-23 09:32:00,
2013-03-23 05:37:00,73.0,71.5,29.93,SSE,155,0.0,1.0,95,0.00,,,0.01,VWS V14.01,2013-03-23 09:37:00,
2013-03-23 05:42:00,72.9,71.4,29.93,SSE,155,0.0,1.0,95,0.00,,,0.01,VWS V14.01,2013-03-23 09:42:00,
2013-03-23 05:47:00,72.8,71.3,29.93,SSE,155,0.0,2.0,95,0.00,,,0.01,VWS V14.01,2013-03-23 09:47:00,
2013-03-23 05:52:00,72.8,71.3,29.93,SSE,155,0.0,2.0,95,0.00,,,0.01,VWS V14.01,2013-03-23 09:52:00,
2013-03-23 05:57:00,72.8,71.3,29.93,SSE,155,0.0,2.0,95,0.00,,,0.01,VWS V14.01,2013-03-23 09:57:00,
2013-03-23 06:02:00,72.7,71.2,29.93,SSE,155,0.0,0.0,95,0.00,,,0.01,VWS V14.01,2013-03-23 10:02:00,
2013-03-23 06:07:00,72.6,71.1,29.93,SSE,155,0.0,1.0,95,0.00,,,0.01,VWS V14.01,2013-03-23 10:07:00,
2013-03-23 06:12:00,72.5,71.0,29.93,SSE,155,0.0,1.0,95,0.00,,,0.01,VWS V14.01,2013-03-23 10:12:00,
2013-03-23 06:17:00,72.5,71.0,29.93,SSE,148,0.0,0.0,95,0.00,,,0.01,VWS V14.01,2013-03-23 10:17:00,
2013-03-23 06:22:00,72.5,71.0,29.93,SSE,148,0.0,3.0,95,0.00,,,0.01,VWS V14.01,2013-03-23 10:22:00,
2013-03-23 06:27:00,72.5,71.0,29.93,SE,141,0.0,3.0,95,0.00,,,0.01,VWS V14.01,2013-03-23 10:27:00,
2013-03-23 06:32:00,72.4,70.9,29.93,SE,129,0.0,4.0,95,0.00,,,0.01,VWS V14.01,2013-03-23 10:32:00,
2013-03-23 06:37:00,72.6,71.1,29.93,SE,145,2.0,6.0,95,0.00,,,0.01,VWS V14.01,2013-03-23 10:37:00,
2013-03-23 06:42:00,72.7,71.2,29.94,SSE,148,0.0,6.0,95,0.00,,,0.01,VWS V14.01,2013-03-23 10:42:00,
2013-03-23 06:47:00,72.8,71.3,29.94,SSE,167,2.0,3.0,95,0.00,,,0.01,VWS V14.01,2013-03-23 10:47:00,
2013-03-23 06:52:00,72.7,71.2,29.94,SE,145,0.0,4.0,95,0.00,,,0.01,VWS V14.01,2013-03-23 10:52:00,
2013-03-23 06:57:00,72.7,71.2,29.94,SE,138,1.0,4.0,95,0.00,,,0.01,VWS V14.01,2013-03-23 10:57:00,
2013-03-23 07:02:00,72.6,71.1,29.94,SE,138,0.0,1.0,95,0.00,,,0.01,VWS V14.01,2013-03-23 11:02:00,
2013-03-23 07:07:00,72.6,71.1,29.94,SE,138,0.0,2.0,95,0.00,,,0.01,VWS V14.01,2013-03-23 11:07:00,
2013-03-23 07:12:00,72.5,71.0,29.94,SE,138,0.0,2.0,95,0.00,,,0.01,VWS V14.01,2013-03-23 11:12:00,
2013-03-23 07:17:00,72.4,71.2,29.94,SE,138,0.0,1.0,96,0.00,,,0.01,VWS V14.01,2013-03-23 11:17:00,
2013-03-23 07:22:00,72.3,70.8,29.94,SE,138,0.0,1.0,95,0.00,,,0.01,VWS V14.01,2013-03-23 11:22:00,
2013-03-23 07:27:00,72.2,70.7,29.94,SE,138,0.0,1.0,95,0.00,,,0.01,VWS V14.01,2013-03-23 11:27:00,
2013-03-23 07:32:00,72.1,70.6,29.94,SE,138,0.0,0.0,95,0.00,,,0.01,VWS V14.01,2013-03-23 11:32:00,
2013-03-23 07:37:00,72.0,70.5,29.94,SE,138,0.0,0.0,95,0.00,,,0.01,VWS V14.01,2013-03-23 11:37:00,
2013-03-23 07:42:00,72.0,70.8,29.95,SE,138,0.0,0.0,96,0.00,,,0.01,VWS V14.01,2013-03-23 11:42:00,
2013-03-23 07:47:00,72.1,70.9,29.95,SE,138,0.0,1.0,96,0.00,,,0.01,VWS V14.01,2013-03-23 11:47:00,
2013-03-23 07:52:00,72.2,71.0,29.95,SE,138,1.0,2.0,96,0.00,,,0.01,VWS V14.01,2013-03-23 11:52:00,
2013-03-23 07:57:00,72.3,71.1,29.95,SE,138,1.0,2.0,96,0.00,,,0.01,VWS V14.01,2013-03-23 11:57:00,
2013-03-23 08:02:00,72.4,71.2,29.95,SE,138,1.0,2.0,96,0.00,,,0.01,VWS V14.01,2013-03-23 12:02:00,
2013-03-23 08:07:00,72.6,71.4,29.95,SSE,147,0.0,3.0,96,0.00,,,0.01,VWS V14.01,2013-03-23 12:07:00,
2013-03-23 08:12:00,72.7,71.5,29.95,South,180,3.0,4.0,96,0.00,,,0.01,VWS V14.01,2013-03-23 12:12:00,
2013-03-23 08:17:00,72.9,71.7,29.95,SE,142,3.0,4.0,96,0.00,,,0.01,VWS V14.01,2013-03-23 12:17:00,
2013-03-23 08:22:00,73.1,71.9,29.95,SSE,167,1.0,5.0,96,0.00,,,0.01,VWS V14.01,2013-03-23 12:22:00,
2013-03-23 08:27:00,73.4,72.2,29.95,South,188,2.0,5.0,96,0.00,,,0.01,VWS V14.01,2013-03-23 12:27:00,
2013-03-23 08:32:00,73.7,72.5,29.95,SSE,149,1.0,5.0,96,0.00,,,0.01,VWS V14.01,2013-03-23 12:32:00,
2013-03-23 08:37:00,74.0,72.5,29.96,South,184,5.0,7.0,95,0.00,,,0.01,VWS V14.01,2013-03-23 12:37:00,
2013-03-23 08:42:00,74.4,72.9,29.96,South,182,4.0,8.0,95,0.00,,,0.01,VWS V14.01,2013-03-23 12:42:00,
2013-03-23 08:47:00,74.8,73.0,29.96,SE,146,2.0,6.0,94,0.00,,,0.01,VWS V14.01,2013-03-23 12:47:00,
2013-03-23 08:52:00,75.1,73.3,29.97,South,188,5.0,8.0,94,0.01,,,0.02,VWS V14.01,2013-03-23 12:52:00,
2013-03-23 08:57:00,75.5,73.3,29.97,South,176,3.0,10.0,93,0.01,,,0.02,VWS V14.01,2013-03-23 12:57:00,
2013-03-23 09:02:00,75.8,73.6,29.97,South,186,4.0,9.0,93,0.01,,,0.02,VWS V14.01,2013-03-23 13:02:00,
2013-03-23 09:07:00,76.1,73.6,29.97,SW,232,7.0,9.0,92,0.01,,,0.02,VWS V14.01,2013-03-23 13:07:00,
2013-03-23 09:12:00,76.4,73.9,29.97,SSW,203,5.0,11.0,92,0.01,,,0.02,VWS V14.01,2013-03-23 13:12:00,
2013-03-23 09:17:00,76.6,73.8,29.97,South,179,5.0,7.0,91,0.01,,,0.02,VWS V14.01,2013-03-23 13:17:00,
2013-03-23 09:22:00,76.9,73.8,29.97,SSE,159,9.0,9.0,90,0.01,,,0.02,VWS V14.01,2013-03-23 13:22:00,
2013-03-23 09:27:00,77.1,73.6,29.97,SSW,196,6.0,14.0,89,0.01,,,0.02,VWS V14.01,2013-03-23 13:27:00,
2013-03-23 09:32:00,77.2,73.7,29.97,SSE,164,10.0,11.0,89,0.01,,,0.02,VWS V14.01,2013-03-23 13:32:00,
2013-03-23 09:37:00,77.3,73.5,29.97,SSW,192,6.0,12.0,88,0.01,,,0.02,VWS V14.01,2013-03-23 13:37:00,
2013-03-23 09:42:00,77.5,73.7,29.97,SSW,192,4.0,12.0,88,0.01,,,0.02,VWS V14.01,2013-03-23 13:42:00,
2013-03-23 09:47:00,77.5,73.3,29.97,SE,138,2.0,17.0,87,0.01,,,0.02,VWS V14.01,2013-03-23 13:47:00,
2013-03-23 09:52:00,77.9,73.7,29.97,South,177,6.0,17.0,87,0.01,,,0.02,VWS V14.01,2013-03-23 13:52:00,
2013-03-23 09:57:00,78.1,73.2,29.96,SSW,200,7.0,17.0,85,0.01,,,0.02,VWS V14.01,2013-03-23 13:57:00,
2013-03-23 10:02:00,78.5,73.6,29.97,SSW,201,5.0,7.0,85,0.00,,,0.02,VWS V14.01,2013-03-23 14:02:00,
2013-03-23 10:07:00,78.9,73.7,29.97,SW,221,8.0,10.0,84,0.00,,,0.02,VWS V14.01,2013-03-23 14:07:00,
2013-03-23 10:12:00,79.5,73.9,29.96,SW,235,5.0,10.0,83,0.00,,,0.02,VWS V14.01,2013-03-23 14:12:00,
2013-03-23 10:17:00,79.4,73.4,29.97,SSW,193,9.0,9.0,82,0.00,,,0.02,VWS V14.01,2013-03-23 14:17:00,
2013-03-23 10:22:00,79.3,73.0,29.97,SSW,198,7.0,12.0,81,0.00,,,0.02,VWS V14.01,2013-03-23 14:22:00,
2013-03-23 10:27:00,79.9,73.6,29.96,South,178,4.0,12.0,81,0.00,,,0.02,VWS V14.01,2013-03-23 14:27:00,
2013-03-23 10:32:00,80.3,73.6,29.97,South,181,5.0,8.0,80,0.00,,,0.02,VWS V14.01,2013-03-23 14:32:00,
2013-03-23 10:38:00,80.2,72.3,29.96,SSW,198,5.0,13.0,77,0.00,,,0.02,VWS V14.01,2013-03-23 14:38:00,
2013-03-23 10:43:00,80.1,72.6,29.97,SSW,197,4.0,13.0,78,0.00,,,0.02,VWS V14.01,2013-03-23 14:43:00,
2013-03-23 10:48:00,80.8,72.5,29.96,South,174,7.0,9.0,76,0.00,,,0.02,VWS V14.01,2013-03-23 14:48:00,
2013-03-23 10:53:00,80.3,71.7,29.97,South,173,5.0,14.0,75,0.00,,,0.02,VWS V14.01,2013-03-23 14:53:00,
2013-03-23 10:58:00,81.0,71.5,29.96,WSW,250,2.0,14.0,73,0.00,,,0.02,VWS V14.01,2013-03-23 14:58:00,
2013-03-23 11:03:00,81.2,71.3,29.96,SSW,192,6.0,10.0,72,0.00,,,0.02,VWS V14.01,2013-03-23 15:03:00,
2013-03-23 11:08:00,81.5,71.2,29.96,South,190,11.0,12.0,71,0.00,,,0.02,VWS V14.01,2013-03-23 15:08:00,
2013-03-23 11:13:00,81.8,71.1,29.96,South,181,6.0,12.0,70,0.00,,,0.02,VWS V14.01,2013-03-23 15:13:00,
2013-03-23 11:18:00,82.2,71.0,29.96,SE,140,7.0,9.0,69,0.00,,,0.02,VWS V14.01,2013-03-23 15:18:00,
2013-03-23 11:23:00,82.7,71.5,29.95,SW,223,4.0,9.0,69,0.00,,,0.02,VWS V14.01,2013-03-23 15:23:00,
2013-03-23 11:28:00,82.6,70.5,29.95,SSW,198,7.0,9.0,67,0.00,,,0.02,VWS V14.01,2013-03-23 15:28:00,
2013-03-23 11:33:00,82.9,69.9,29.95,SE,125,7.0,12.0,65,0.00,,,0.02,VWS V14.01,2013-03-23 15:33:00,
2013-03-23 11:38:00,83.1,70.6,29.95,South,182,2.0,12.0,66,0.00,,,0.02,VWS V14.01,2013-03-23 15:38:00,
2013-03-23 11:43:00,83.0,70.0,29.95,SSE,164,9.0,13.0,65,0.00,,,0.02,VWS V14.01,2013-03-23 15:43:00,
2013-03-23 11:48:00,82.8,70.3,29.95,WSW,249,6.0,9.0,66,0.00,,,0.02,VWS V14.01,2013-03-23 15:48:00,
2013-03-23 11:53:00,83.2,69.3,29.95,WSW,244,4.0,12.0,63,0.00,,,0.02,VWS V14.01,2013-03-23 15:53:00,
2013-03-23 11:58:00,83.4,69.5,29.94,South,188,5.0,12.0,63,0.00,,,0.02,VWS V14.01,2013-03-23 15:58:00,
2013-03-23 12:03:00,83.8,69.9,29.94,SW,232,4.0,9.0,63,0.00,,,0.02,VWS V14.01,2013-03-23 16:03:00,
2013-03-23 12:08:00,83.4,69.0,29.94,SSW,209,7.0,13.0,62,0.00,,,0.02,VWS V14.01,2013-03-23 16:08:00,
2013-03-23 12:13:00,83.9,69.5,29.93,South,169,6.0,13.0,62,0.00,,,0.02,VWS V14.01,2013-03-23 16:13:00,
2013-03-23 12:18:00,83.9,69.5,29.93,SSW,212,8.0,10.0,62,0.00,,,0.02,VWS V14.01,2013-03-23 16:18:00,
2013-03-23 12:23:00,85.3,69.8,29.93,SSE,167,3.0,12.0,60,0.00,,,0.02,VWS V14.01,2013-03-23 16:23:00,
2013-03-23 12:28:00,84.8,69.4,29.93,SSW,197,7.0,14.0,60,0.00,,,0.02,VWS V14.01,2013-03-23 16:28:00,
2013-03-23 12:33:00,85.0,69.6,29.93,South,174,4.0,10.0,60,0.00,,,0.02,VWS V14.01,2013-03-23 16:33:00,
2013-03-23 12:38:00,85.6,69.6,29.92,SSW,204,6.0,11.0,59,0.00,,,0.02,VWS V14.01,2013-03-23 16:38:00,
2013-03-23 12:43:00,85.6,69.1,29.92,South,178,3.0,13.0,58,0.00,,,0.02,VWS V14.01,2013-03-23 16:43:00,
2013-03-23 12:48:00,85.2,68.8,29.92,South,177,6.0,10.0,58,0.00,,,0.02,VWS V14.01,2013-03-23 16:48:00,
2013-03-23 12:53:00,85.3,68.9,29.92,SSW,202,3.0,12.0,58,0.00,,,0.02,VWS V14.01,2013-03-23 16:53:00,
2013-03-23 12:58:00,85.0,69.1,29.91,South,169,5.0,12.0,59,0.00,,,0.02,VWS V14.01,2013-03-23 16:58:00,
2013-03-23 13:03:00,85.3,68.9,29.91,South,187,6.0,10.0,58,0.00,,,0.02,VWS V14.01,2013-03-23 17:03:00,
2013-03-23 13:08:00,86.8,69.2,29.91,SSW,213,9.0,10.0,56,0.00,,,0.02,VWS V14.01,2013-03-23 17:08:00,
2013-03-23 13:13:00,86.2,68.2,29.90,South,189,10.0,10.0,55,0.00,,,0.02,VWS V14.01,2013-03-23 17:13:00,
2013-03-23 13:18:00,85.4,69.0,29.90,SSW,192,7.0,11.0,58,0.00,,,0.02,VWS V14.01,2013-03-23 17:18:00,
2013-03-23 13:23:00,86.4,69.9,29.90,South,171,6.0,11.0,58,0.00,,,0.02,VWS V14.01,2013-03-23 17:23:00,
2013-03-23 13:28:00,86.7,70.2,29.90,South,187,4.0,13.0,58,0.00,,,0.02,VWS V14.01,2013-03-23 17:28:00,
2013-03-23 13:33:00,86.6,69.6,29.89,South,171,8.0,14.0,57,0.00,,,0.02,VWS V14.01,2013-03-23 17:33:00,
2013-03-23 13:38:00,87.0,71.4,29.89,South,173,7.0,14.0,60,0.00,,,0.02,VWS V14.01,2013-03-23 17:38:00,
2013-03-23 13:43:00,86.1,70.1,29.89,ESE,117,5.0,15.0,59,0.00,,,0.02,VWS V14.01,2013-03-23 17:43:00,
2013-03-23 13:48:00,86.8,71.3,29.89,South,182,7.0,9.0,60,0.00,,,0.02,VWS V14.01,2013-03-23 17:48:00,
2013-03-23 13:53:00,86.6,71.1,29.89,SW,215,4.0,11.0,60,0.00,,,0.02,VWS V14.01,2013-03-23 17:53:00,
2013-03-23 13:58:00,86.0,70.5,29.88,SSE,148,8.0,15.0,60,0.00,,,0.02,VWS V14.01,2013-03-23 17:58:00,
2013-03-23 14:03:00,86.6,70.6,29.88,SSW,195,8.0,12.0,59,0.00,,,0.02,VWS V14.01,2013-03-23 18:03:00,
2013-03-23 14:08:00,86.1,69.6,29.88,SSW,194,3.0,12.0,58,0.00,,,0.02,VWS V14.01,2013-03-23 18:08:00,
2013-03-23 14:13:00,86.0,70.0,29.88,SSW,195,7.0,12.0,59,0.00,,,0.02,VWS V14.01,2013-03-23 18:13:00,
2013-03-23 14:18:00,86.6,70.1,29.88,SSW,205,9.0,10.0,58,0.00,,,0.02,VWS V14.01,2013-03-23 18:18:00,
2013-03-23 14:23:00,86.4,69.4,29.88,South,189,6.0,13.0,57,0.00,,,0.02,VWS V14.01,2013-03-23 18:23:00,
2013-03-23 14:28:00,86.8,68.2,29.88,SSE,159,8.0,14.0,54,0.00,,,0.02,VWS V14.01,2013-03-23 18:28:00,
2013-03-23 14:33:00,86.9,68.8,29.88,ESE,121,10.0,15.0,55,0.00,,,0.02,VWS V14.01,2013-03-23 18:33:00,
2013-03-23 14:38:00,86.5,69.0,29.88,SSW,194,6.0,16.0,56,0.00,,,0.02,VWS V14.01,2013-03-23 18:38:00,
2013-03-23 14:43:00,86.9,68.8,29.87,South,189,8.0,16.0,55,0.00,,,0.02,VWS V14.01,2013-03-23 18:43:00,
2013-03-23 14:48:00,87.6,68.9,29.87,SW,217,3.0,11.0,54,0.00,,,0.02,VWS V14.01,2013-03-23 18:48:00,
2013-03-23 14:53:00,87.9,68.7,29.86,SSW,197,9.0,13.0,53,0.00,,,0.02,VWS V14.01,2013-03-23 18:53:00,
2013-03-23 14:58:00,88.3,68.5,29.86,SSW,194,7.0,14.0,52,0.00,,,0.02,VWS V14.01,2013-03-23 18:58:00,
2013-03-23 15:03:00,88.0,68.7,29.86,South,191,9.0,14.0,53,0.00,,,0.02,VWS V14.01,2013-03-23 19:03:00,
2013-03-23 15:08:00,87.4,68.7,29.86,SSE,163,6.0,16.0,54,0.00,,,0.02,VWS V14.01,2013-03-23 19:08:00,
2013-03-23 15:13:00,88.1,68.8,29.86,South,180,11.0,16.0,53,0.00,,,0.02,VWS V14.01,2013-03-23 19:13:00,
2013-03-23 15:18:00,88.0,69.3,29.86,SE,141,8.0,10.0,54,0.00,,,0.02,VWS V14.01,2013-03-23 19:18:00,
2013-03-23 15:23:00,88.2,68.9,29.85,SSW,201,5.0,14.0,53,0.00,,,0.02,VWS V14.01,2013-03-23 19:23:00,
2013-03-23 15:28:00,88.7,69.9,29.85,SSE,159,9.0,14.0,54,0.00,,,0.02,VWS V14.01,2013-03-23 19:28:00,
2013-03-23 15:33:00,88.6,68.7,29.85,SSW,193,7.0,10.0,52,0.00,,,0.02,VWS V14.01,2013-03-23 19:33:00,
2013-03-23 15:38:00,88.3,69.0,29.85,South,180,7.0,12.0,53,0.00,,,0.02,VWS V14.01,2013-03-23 19:38:00,
2013-03-23 15:43:00,87.5,68.8,29.85,SSE,163,5.0,13.0,54,0.00,,,0.02,VWS V14.01,2013-03-23 19:43:00,
2013-03-23 15:48:00,88.0,69.3,29.84,South,182,4.0,10.0,54,0.00,,,0.02,VWS V14.01,2013-03-23 19:48:00,
2013-03-23 15:53:00,88.4,68.6,29.84,South,189,7.0,13.0,52,0.00,,,0.02,VWS V14.01,2013-03-23 19:53:00,
2013-03-23 15:58:00,88.3,69.0,29.84,South,186,6.0,13.0,53,0.00,,,0.02,VWS V14.01,2013-03-23 19:58:00,
2013-03-23 16:03:00,87.4,68.7,29.84,South,189,7.0,10.0,54,0.00,,,0.02,VWS V14.01,2013-03-23 20:03:00,
2013-03-23 16:08:00,87.9,69.2,29.84,SSE,164,6.0,11.0,54,0.00,,,0.02,VWS V14.01,2013-03-23 20:08:00,
2013-03-23 16:13:00,86.6,68.5,29.84,SSW,195,8.0,12.0,55,0.00,,,0.02,VWS V14.01,2013-03-23 20:13:00,
2013-03-23 16:18:00,87.6,68.9,29.83,SE,139,5.0,10.0,54,0.00,,,0.02,VWS V14.01,2013-03-23 20:18:00,
2013-03-23 16:23:00,87.3,68.6,29.83,South,190,9.0,12.0,54,0.00,,,0.02,VWS V14.01,2013-03-23 20:23:00,
2013-03-23 16:28:00,86.3,68.2,29.83,SW,220,8.0,16.0,55,0.00,,,0.02,VWS V14.01,2013-03-23 20:28:00,
2013-03-23 16:32:00,87.2,69.1,29.83,South,183,6.0,9.0,55,0.00,,,0.02,VWS V14.01,2013-03-23 20:32:00,
2013-03-23 16:37:00,87.1,68.4,29.82,South,176,5.0,15.0,54,0.00,,,0.02,VWS V14.01,2013-03-23 20:37:00,
2013-03-23 16:42:00,87.0,68.9,29.83,SSW,198,7.0,15.0,55,0.00,,,0.02,VWS V14.01,2013-03-23 20:42:00,
2013-03-23 16:47:00,86.3,68.8,29.83,SSW,195,7.0,9.0,56,0.00,,,0.02,VWS V14.01,2013-03-23 20:47:00,
2013-03-23 16:52:00,86.7,69.1,29.82,South,175,7.0,11.0,56,0.00,,,0.02,VWS V14.01,2013-03-23 20:52:00,
2013-03-23 16:58:00,87.3,69.2,29.82,SSE,158,8.0,12.0,55,0.00,,,0.02,VWS V14.01,2013-03-23 20:58:00,
2013-03-23 17:03:00,86.5,69.5,29.82,South,183,3.0,14.0,57,0.00,,,0.02,VWS V14.01,2013-03-23 21:03:00,
2013-03-23 17:08:00,86.7,69.7,29.82,SSE,153,4.0,14.0,57,0.00,,,0.02,VWS V14.01,2013-03-23 21:08:00,
2013-03-23 17:13:00,86.5,70.0,29.82,ESE,103,4.0,14.0,58,0.00,,,0.02,VWS V14.01,2013-03-23 21:13:00,
2013-03-23 17:18:00,87.0,70.4,29.82,South,178,7.0,11.0,58,0.00,,,0.02,VWS V14.01,2013-03-23 21:18:00,
2013-03-23 17:23:00,86.9,70.9,29.82,SSW,207,7.0,13.0,59,0.00,,,0.02,VWS V14.01,2013-03-23 21:23:00,
2013-03-23 17:28:00,86.3,70.3,29.82,SSE,147,8.0,14.0,59,0.00,,,0.02,VWS V14.01,2013-03-23 21:28:00,
2013-03-23 17:33:00,86.5,70.0,29.82,SSW,197,5.0,14.0,58,0.00,,,0.02,VWS V14.01,2013-03-23 21:33:00,
2013-03-23 17:38:00,86.5,70.0,29.82,SSW,204,7.0,14.0,58,0.00,,,0.02,VWS V14.01,2013-03-23 21:38:00,
2013-03-23 17:42:00,86.3,69.8,29.82,SW,232,3.0,14.0,58,0.00,,,0.02,VWS V14.01,2013-03-23 21:42:00,
2013-03-23 17:48:00,86.1,70.1,29.82,South,175,4.0,10.0,59,0.00,,,0.02,VWS V14.01,2013-03-23 21:48:00,
2013-03-23 17:53:00,86.3,70.3,29.82,SW,227,8.0,13.0,59,0.00,,,0.02,VWS V14.01,2013-03-23 21:53:00,
2013-03-23 17:58:00,85.9,70.4,29.81,South,184,5.0,13.0,60,0.00,,,0.02,VWS V14.01,2013-03-23 21:58:00,
2013-03-23 18:03:00,85.4,70.4,29.82,South,186,9.0,13.0,61,0.00,,,0.02,VWS V14.01,2013-03-23 22:03:00,
2013-03-23 18:08:00,85.2,70.7,29.82,South,177,6.0,14.0,62,0.00,,,0.02,VWS V14.01,2013-03-23 22:08:00,
2013-03-23 18:13:00,85.1,70.6,29.82,SSE,165,3.0,14.0,62,0.00,,,0.02,VWS V14.01,2013-03-23 22:13:00,
2013-03-23 18:18:00,85.2,70.7,29.82,SSE,153,2.0,9.0,62,0.00,,,0.02,VWS V14.01,2013-03-23 22:18:00,
2013-03-23 18:23:00,85.5,71.0,29.82,South,188,2.0,11.0,62,0.00,,,0.02,VWS V14.01,2013-03-23 22:23:00,
2013-03-23 18:28:00,85.2,70.7,29.82,South,188,6.0,13.0,62,0.00,,,0.02,VWS V14.01,2013-03-23 22:28:00,
2013-03-23 18:33:00,85.0,71.0,29.82,SSW,195,7.0,9.0,63,0.00,,,0.02,VWS V14.01,2013-03-23 22:33:00,
2013-03-23 18:38:00,85.0,70.5,29.82,SSW,198,6.0,11.0,62,0.00,,,0.02,VWS V14.01,2013-03-23 22:38:00,
2013-03-23 18:43:00,85.0,71.0,29.82,SSW,196,4.0,11.0,63,0.00,,,0.02,VWS V14.01,2013-03-23 22:43:00,
2013-03-23 18:48:00,85.2,70.7,29.82,SSW,209,6.0,8.0,62,0.00,,,0.02,VWS V14.01,2013-03-23 22:48:00,
2013-03-23 18:53:00,85.2,70.7,29.82,South,184,5.0,10.0,62,0.00,,,0.02,VWS V14.01,2013-03-23 22:53:00,
2013-03-23 18:58:00,84.7,70.7,29.82,South,182,9.0,11.0,63,0.00,,,0.02,VWS V14.01,2013-03-23 22:58:00,
2013-03-23 19:03:00,84.5,70.5,29.83,South,172,4.0,7.0,63,0.00,,,0.02,VWS V14.01,2013-03-23 23:03:00,
2013-03-23 19:08:00,84.5,70.5,29.83,South,191,4.0,9.0,63,0.00,,,0.02,VWS V14.01,2013-03-23 23:08:00,
2013-03-23 19:13:00,84.2,70.7,29.83,South,189,2.0,9.0,64,0.00,,,0.02,VWS V14.01,2013-03-23 23:13:00,
2013-03-23 19:19:00,83.8,70.8,29.83,South,180,1.0,8.0,65,0.00,,,0.02,VWS V14.01,2013-03-23 23:19:00,
2013-03-23 19:24:00,83.5,70.5,29.83,South,177,2.0,8.0,65,0.00,,,0.02,VWS V14.01,2013-03-23 23:24:00,
2013-03-23 19:29:00,83.3,70.3,29.84,SSE,162,5.0,8.0,65,0.00,,,0.02,VWS V14.01,2013-03-23 23:29:00,
2013-03-23 19:34:00,82.9,70.8,29.84,SSE,167,4.0,8.0,67,0.00,,,0.02,VWS V14.01,2013-03-23 23:34:00,
2013-03-23 19:39:00,82.4,70.8,29.84,South,172,4.0,8.0,68,0.00,,,0.02,VWS V14.01,2013-03-23 23:39:00,
2013-03-23 19:44:00,82.0,70.8,29.84,South,191,2.0,8.0,69,0.00,,,0.02,VWS V14.01,2013-03-23 23:44:00,
2013-03-23 19:49:00,81.8,70.6,29.84,South,182,3.0,6.0,69,0.00,,,0.02,VWS V14.01,2013-03-23 23:49:00,
2013-03-23 19:54:00,81.7,70.6,29.84,SE,141,3.0,8.0,69,0.00,,,0.02,VWS V14.01,2013-03-23 23:54:00,
2013-03-23 19:59:00,81.5,70.8,29.84,South,184,2.0,8.0,70,0.00,,,0.02,VWS V14.01,2013-03-23 23:59:00,
2013-03-23 20:04:00,81.3,70.6,29.84,South,184,2.0,5.0,70,0.00,,,0.02,VWS V14.01,2013-03-24 00:04:00,
2013-03-23 20:09:00,81.1,70.8,29.85,South,171,1.0,7.0,71,0.00,,,0.02,VWS V14.01,2013-03-24 00:09:00,
2013-03-23 20:14:00,80.9,70.6,29.85,South,188,5.0,7.0,71,0.00,,,0.02,VWS V14.01,2013-03-24 00:14:00,
2013-03-23 20:19:00,80.7,70.8,29.85,SSE,155,1.0,5.0,72,0.00,,,0.02,VWS V14.01,2013-03-24 00:19:00,
2013-03-23 20:24:00,80.5,70.7,29.86,SSW,196,4.0,6.0,72,0.00,,,0.02,VWS V14.01,2013-03-24 00:24:00,
2013-03-23 20:29:00,80.3,70.9,29.86,South,183,4.0,6.0,73,0.00,,,0.02,VWS V14.01,2013-03-24 00:29:00,
2013-03-23 20:34:00,80.2,70.8,29.86,South,180,2.0,5.0,73,0.00,,,0.02,VWS V14.01,2013-03-24 00:34:00,